This is the latest recevied weather packets stored in our database for station/object EA3CTN-13. If no packets are shown the sender has not sent any weather packets the latest 10 day(s).
| Time | Temp. | Humidity | Pressure | Rain* | Wind** | Luminosity | Snow |
|---|---|---|---|---|---|---|---|
| 1777977919 | 20.56° C | 47% | 1012.2 hPa | - | - | - | - |
| 1777977439 | 20.56° C | 49% | 1012.2 hPa | - | - | - | - |
| 1777976959 | 20° C | 49% | 1012.3 hPa | - | - | - | - |
| 1777976474 | 20° C | 51% | 1012.2 hPa | - | - | - | - |
| 1777975999 | 20° C | 51% | 1012.4 hPa | - | - | - | - |
| 1777975519 | 20° C | 51% | 1012.6 hPa | - | - | - | - |
| 1777975039 | 20° C | 51% | 1012.5 hPa | - | - | - | - |
| 1777974559 | 20° C | 49% | 1012.5 hPa | - | - | - | - |
| 1777974080 | 20° C | 48% | 1012.5 hPa | - | - | - | - |
| 1777973599 | 20° C | 50% | 1012.1 hPa | - | - | - | - |
| 1777973122 | 20° C | 50% | 1012 hPa | - | - | - | - |
| 1777972639 | 20° C | 51% | 1012.1 hPa | - | - | - | - |
| 1777972159 | 19.44° C | 52% | 1012.2 hPa | - | - | - | - |
| 1777971679 | 19.44° C | 54% | 1011.8 hPa | - | - | - | - |
| 1777971199 | 19.44° C | 54% | 1012 hPa | - | - | - | - |
| 1777970719 | 19.44° C | 51% | 1012.4 hPa | - | - | - | - |
| 1777970239 | 18.89° C | 53% | 1012.6 hPa | - | - | - | - |
| 1777969759 | 18.89° C | 50% | 1012.6 hPa | - | - | - | - |
| 1777969279 | 18.89° C | 50% | 1012.4 hPa | - | - | - | - |
| 1777968799 | 18.89° C | 49% | 1012.2 hPa | - | - | - | - |
| 1777968319 | 19.44° C | 49% | 1012.1 hPa | - | - | - | - |
| 1777967839 | 19.44° C | 49% | 1012.1 hPa | - | - | - | - |
| 1777967359 | 18.89° C | 49% | 1012.1 hPa | - | - | - | - |
| 1777966879 | 18.89° C | 50% | 1012.2 hPa | - | - | - | - |
| 1777966399 | 18.33° C | 51% | 1012.2 hPa | - | - | - | - |
* Rain since midnight (hover to see other rain measurements)
** Current wind speed in m/s (hover to see current wind gust speed)